Defiance, OH

9:37 AM EDT on July 29, 2016 (GMT -0400)
Defiance Memorial

Weather History for KDFI - October, 2014

Change the Weather History Date:

Monday, October 6, 2014

  Actual Average Record
Temperature  
Mean Temperature 50 °F -  
Max Temperature 57 °F 67 °F 88 °F (1946)
Min Temperature 44 °F 43 °F 27 °F (1966)
Degree Days  
Heating Degree Days 14    
Moisture  
Dew Point 46 °F    
Average Humidity 87    
Maximum Humidity 97    
Minimum Humidity 67    
Precipitation  
Precipitation 0.18 in - - ()
Sea Level Pressure  
Sea Level Pressure 29.68 in    
Wind  
Wind Speed 5 mph (South)    
Max Wind Speed 14 mph    
Max Gust Speed 25 mph    
Visibility 5 miles    
Events Fog , Rain    
Averages and records for this station are not official NWS values.
T = Trace of Precipitation, MM = Missing Value Source: NWS Daily Summary

Daily Weather History Graph

Daily Weather History Graph

Search for Another Location

Airport or City:

Trip Planner

Search our weather history database for the weather conditions in past years. The results will help you decide how hot, cold, wet, or windy it might be!

Date:

Astronomy

Oct. 06, 2014 Rise Set
Actual Time 7:39 AM EDT 7:11 PM EDT
Civil Twilight 7:12 AM EDT 7:38 PM EDT
Nautical Twilight 6:40 AM EDT 8:10 PM EDT
Astronomical Twilight 6:07 AM EDT 8:42 PM EDT
Moon 6:08 PM EDT (10/6) 5:24 AM EDT (10/6)
Length of Visible Light 12h 26m
Length of Day
11h 31m
Waxing Gibbous, 95% of the Moon is Illuminated
Oct 6
Waxing Gibbous
Oct 8
Full
Oct 15
Last Quarter
Oct 23
New
Oct 30
First Quarter

Hourly Weather History & Observations

Time (EDT) Temp. Windchill Dew Point Humidity Pressure Visibility Wind Dir Wind Speed Gust Speed Precip Events Conditions
12:53 AM 50.0 °F - 43.0 °F 77% 29.72 in 10.0 mi South 8.1 mph - 0.00 in   Overcast
1:53 AM 50.0 °F - 43.0 °F 77% 29.70 in 10.0 mi South 4.6 mph - 0.00 in   Overcast
2:53 AM 48.0 °F - 41.0 °F 77% 29.69 in 10.0 mi South 3.5 mph - N/A   Partly Cloudy
3:53 AM 45.0 °F 43.5 °F 39.9 °F 82% 29.68 in 10.0 mi South 3.5 mph - N/A   Partly Cloudy
4:53 AM 46.9 °F - 42.1 °F 83% 29.69 in 10.0 mi SSW 5.8 mph - N/A   Mostly Cloudy
5:53 AM 46.0 °F 43.1 °F 41.0 °F 83% 29.68 in 10.0 mi South 5.8 mph - N/A   Mostly Cloudy
6:53 AM 46.9 °F - 41.0 °F 80% 29.68 in 10.0 mi South 5.8 mph - N/A   Overcast
7:53 AM 46.9 °F - 41.0 °F 80% 29.69 in 10.0 mi South 6.9 mph - N/A   Overcast
8:53 AM 48.9 °F - 43.0 °F 80% 29.70 in 10.0 mi South 8.1 mph - N/A   Mostly Cloudy
9:53 AM 52.0 °F - 43.0 °F 71% 29.70 in 10.0 mi SSW 9.2 mph - N/A   Overcast
10:53 AM 55.0 °F - 44.1 °F 67% 29.71 in 10.0 mi SW 13.8 mph 25.3 mph N/A   Mostly Cloudy
11:53 AM 54.0 °F - 46.0 °F 75% 29.70 in 10.0 mi SSW 10.4 mph - 0.00 in Rain Light Rain
12:53 PM 54.0 °F - 48.0 °F 80% 29.69 in 10.0 mi South 9.2 mph - 0.00 in Rain Light Rain
1:53 PM 54.0 °F - 48.9 °F 83% 29.67 in 5.0 mi SSW 9.2 mph - 0.02 in Rain Rain
2:49 PM 53.6 °F - 50.0 °F 88% 29.66 in 2.0 mi SSW 10.4 mph - 0.06 in Rain Rain
2:53 PM 53.1 °F - 50.0 °F 89% 29.66 in 1.8 mi South 8.1 mph - 0.08 in Rain Heavy Rain
2:58 PM 53.1 °F - 50.0 °F 89% 29.65 in 2.5 mi SSE 9.2 mph - 0.00 in Rain Light Rain
3:06 PM 53.1 °F - 50.0 °F 89% 29.65 in 3.0 mi SSE 10.4 mph - 0.03 in Rain Light Rain
3:10 PM 53.1 °F - 50.0 °F 89% 29.64 in 2.0 mi SSE 11.5 mph - 0.05 in Rain Rain
3:19 PM 53.1 °F - 50.0 °F 89% 29.63 in 3.0 mi SSE 11.5 mph - 0.06 in Rain Light Rain
3:53 PM 55.9 °F - 50.0 °F 80% 29.64 in 10.0 mi South 9.2 mph - 0.07 in   Mostly Cloudy
4:03 PM 55.0 °F - 50.0 °F 83% 29.63 in 10.0 mi South 12.7 mph - N/A   Overcast
4:36 PM 55.9 °F - 50.0 °F 80% 29.62 in 10.0 mi South 10.4 mph - N/A   Scattered Clouds
4:53 PM 55.9 °F - 50.0 °F 80% 29.64 in 10.0 mi SSW 9.2 mph - N/A   Partly Cloudy
5:53 PM 57.9 °F - 52.0 °F 81% 29.63 in 10.0 mi Variable 3.5 mph - 0.01 in   Mostly Cloudy
6:53 PM 55.9 °F - 51.1 °F 84% 29.63 in 10.0 mi Calm Calm - N/A   Partly Cloudy
7:42 PM 51.1 °F - 48.9 °F 92% 29.65 in 2.0 mi Calm Calm - N/A   Partly Cloudy
7:49 PM 51.8 °F - 48.2 °F 88% 29.65 in 1.0 mi Calm Calm - N/A   Partly Cloudy
7:53 PM 51.1 °F - 48.9 °F 92% 29.67 in 1.0 mi Calm Calm - N/A   Partly Cloudy
8:17 PM 48.9 °F - 48.0 °F 97% 29.67 in 0.8 mi Calm Calm - N/A   Mist
8:31 PM 50.0 °F - 48.0 °F 93% 29.67 in 1.0 mi Calm Calm - N/A   Clear
8:34 PM 48.9 °F - 48.0 °F 97% 29.67 in 0.8 mi Calm Calm - N/A   Mist
8:53 PM 46.9 °F - 45.0 °F 93% 29.68 in 0.2 mi Calm Calm - N/A Fog Fog
9:13 PM 48.0 °F - 45.0 °F 89% 29.67 in 1.2 mi Calm Calm - N/A   Partly Cloudy
9:19 PM 48.0 °F - 46.0 °F 93% 29.68 in 2.5 mi Calm Calm - N/A   Clear
9:22 PM 48.0 °F - 46.0 °F 93% 29.68 in 1.8 mi Calm Calm - N/A   Clear
9:27 PM 46.9 °F - 46.0 °F 97% 29.68 in 0.8 mi Calm Calm - N/A   Mist
9:53 PM 45.0 °F - 44.1 °F 97% 29.70 in 0.2 mi Calm Calm - N/A Fog Fog
10:19 PM 45.0 °F - 43.0 °F 93% 29.70 in 1.0 mi Calm Calm - N/A   Clear
10:23 PM 45.0 °F - 43.0 °F 93% 29.71 in 2.5 mi Calm Calm - N/A   Clear
10:26 PM 45.0 °F - 43.0 °F 93% 29.71 in 1.8 mi Calm Calm - N/A   Clear
10:50 PM 44.6 °F - 42.8 °F 93% 29.71 in 2.5 mi Calm Calm - N/A   Clear
10:53 PM 44.1 °F - 42.1 °F 93% 29.72 in 2.0 mi Calm Calm - N/A   Clear
11:00 PM 45.0 °F - 42.1 °F 90% 29.72 in 1.2 mi Calm Calm - N/A   Clear
11:12 PM 44.1 °F - 42.1 °F 93% 29.72 in 0.8 mi Calm Calm - N/A   Mist
11:28 PM 45.0 °F - 42.1 °F 90% 29.72 in 1.8 mi Calm Calm - N/A   Clear
11:34 PM 45.0 °F - 43.0 °F 93% 29.72 in 2.5 mi Calm Calm - N/A   Clear
11:44 PM 46.0 °F 44.8 °F 43.0 °F 89% 29.73 in 4.0 mi NW 3.5 mph - N/A   Clear
11:53 PM 44.1 °F - 43.0 °F 96% 29.74 in 6.0 mi Calm Calm - N/A   Partly Cloudy